Location: Piedmont
(45.8748°N, 74.1254°W)
Time: 13:24:46
(UTC+00:00)

N. Korean satellite - Pass Details

Date: 10 December 2021
Orbit: 446 x 491 km, 97.3° (Epoch: 18 January)

Event Time Altitude Azimuth Distance (km) Brightness Sun altitude
Rises 11:17:14 0° 356° (N) 2,461 9.9 -11.7°
Reaches altitude 10° 11:19:48 10° 334° (NNW) 1,583 8.7 -11.3°
Enters shadow 11:20:04 11° 331° (NNW) 1,508 8.6 -11.2°
Exits shadow 11:23:07 14° 270° (W) 1,339 8.2 -10.7°
Drops below altitude 10° 11:24:10 10° 253° (WSW) 1,577 8.7 -10.5°
Sets 11:26:43 0° 232° (SW) 2,448 9.8 -10.1°
